|  Orbital Elements
Epoch 2017 June 16.0 TT = JDT 2457920.5                                         
T 2017 June 1.43306 TT                                  Rudenko                 
q   8.1767779            (2000.0)            P               Q                  
z  -0.0003835      Peri.   47.30981     -0.79986451     +0.08023968             
 +/-0.0000010      Node   233.03595     -0.44393205     +0.58783817             
e   1.0031359      Incl.  131.89161     +0.40390730     +0.80498937             
From 160 observations 2016 Mar. 3-2020 Jan. 1, mean residual 0".4.              
 
 |